contact:dominique.lefevre@mio.osupytheas.fr, maurice.libes@osupytheas.fr, didier.mallarino@osupytheas.fr
Project:EMSO http://www.emso-fr.org/EMSO-France
Depth: 2436.0 m
Title:EMSO Ligure Ouest : Data MII capteur OXYGEN
DateTime,Latitude,Longitude,Optode-Type,Optode_Serial,Oxygen,Saturation_Oxygen,Temperature
DateTime,Latitude,Longitude,Optode-Type,Optode_Serial,µmol.l-1,%,degC
2017-11-14T00:01:13,42.805,6.029,4330,1995,198.774,60.784,13.285
2017-11-14T00:04:13,42.805,6.029,4330,1995,198.715,60.766,13.285
2017-11-14T00:07:13,42.805,6.029,4330,1995,198.650,60.746,13.285
2017-11-14T00:10:13,42.805,6.029,4330,1995,198.571,60.722,13.285
2017-11-14T00:13:13,42.805,6.029,4330,1995,198.564,60.720,13.285
2017-11-14T00:16:13,42.805,6.029,4330,1995,198.527,60.709,13.285
2017-11-14T00:19:13,42.805,6.029,4330,1995,198.506,60.702,13.285
2017-11-14T00:22:13,42.805,6.029,4330,1995,198.401,60.670,13.285
2017-11-14T00:25:13,42.805,6.029,4330,1995,198.426,60.678,13.285
2017-11-14T00:28:13,42.805,6.029,4330,1995,198.434,60.680,13.285
2017-11-14T00:31:13,42.805,6.029,4330,1995,198.389,60.666,13.285
2017-11-14T00:34:13,42.805,6.029,4330,1995,198.451,60.686,13.285
2017-11-14T00:37:13,42.805,6.029,4330,1995,198.426,60.678,13.285
2017-11-14T00:40:13,42.805,6.029,4330,1995,198.490,60.698,13.285
2017-11-14T00:43:13,42.805,6.029,4330,1995,198.512,60.704,13.285
2017-11-14T00:46:13,42.805,6.029,4330,1995,198.531,60.710,13.285
2017-11-14T00:49:13,42.805,6.029,4330,1995,198.510,60.704,13.286
2017-11-14T00:52:13,42.805,6.029,4330,1995,198.557,60.718,13.285
2017-11-14T00:55:13,42.805,6.029,4330,1995,198.510,60.704,13.285
2017-11-14T00:58:13,42.805,6.029,4330,1995,198.509,60.703,13.285
2017-11-14T01:01:13,42.805,6.029,4330,1995,198.589,60.728,13.285
2017-11-14T01:04:13,42.805,6.029,4330,1995,198.594,60.729,13.285
2017-11-14T01:07:13,42.805,6.029,4330,1995,198.542,60.714,13.286
2017-11-14T01:10:13,42.805,6.029,4330,1995,198.552,60.717,13.286
2017-11-14T01:13:13,42.805,6.029,4330,1995,198.643,60.744,13.286
2017-11-14T01:16:13,42.805,6.029,4330,1995,198.561,60.719,13.286
2017-11-14T01:19:13,42.805,6.029,4330,1995,198.556,60.718,13.286
2017-11-14T01:22:13,42.805,6.029,4330,1995,198.518,60.706,13.286
2017-11-14T01:25:13,42.805,6.029,4330,1995,198.589,60.728,13.285
2017-11-14T01:28:13,42.805,6.029,4330,1995,198.573,60.723,13.285
2017-11-14T01:31:13,42.805,6.029,4330,1995,198.548,60.715,13.285
2017-11-14T01:34:13,42.805,6.029,4330,1995,198.602,60.732,13.286
2017-11-14T01:37:13,42.805,6.029,4330,1995,198.639,60.743,13.286
2017-11-14T01:40:13,42.805,6.029,4330,1995,198.634,60.742,13.286
2017-11-14T01:43:13,42.805,6.029,4330,1995,198.650,60.747,13.286
2017-11-14T01:46:13,42.805,6.029,4330,1995,198.683,60.757,13.286
2017-11-14T01:49:13,42.805,6.029,4330,1995,198.673,60.754,13.286
2017-11-14T01:52:13,42.805,6.029,4330,1995,198.680,60.756,13.286
2017-11-14T01:55:13,42.805,6.029,4330,1995,198.676,60.755,13.286
2017-11-14T01:58:13,42.805,6.029,4330,1995,198.649,60.747,13.286
2017-11-14T02:01:13,42.805,6.029,4330,1995,198.611,60.735,13.286
2017-11-14T02:04:13,42.805,6.029,4330,1995,198.653,60.748,13.286
2017-11-14T02:07:13,42.805,6.029,4330,1995,198.648,60.746,13.286
2017-11-14T02:10:13,42.805,6.029,4330,1995,198.589,60.728,13.286
2017-11-14T02:13:13,42.805,6.029,4330,1995,198.575,60.724,13.286
2017-11-14T02:16:13,42.805,6.029,4330,1995,198.601,60.732,13.286
2017-11-14T02:19:13,42.805,6.029,4330,1995,198.506,60.703,13.286
2017-11-14T02:22:13,42.805,6.029,4330,1995,198.544,60.714,13.286
2017-11-14T02:25:13,42.805,6.029,4330,1995,198.467,60.691,13.286
2017-11-14T02:28:13,42.805,6.029,4330,1995,198.497,60.700,13.286
2017-11-14T02:31:13,42.805,6.029,4330,1995,198.513,60.705,13.286
2017-11-14T02:34:13,42.805,6.029,4330,1995,198.527,60.709,13.286
2017-11-14T02:37:13,42.805,6.029,4330,1995,198.441,60.683,13.286
2017-11-14T02:40:13,42.805,6.029,4330,1995,198.446,60.684,13.286
2017-11-14T02:43:13,42.805,6.029,4330,1995,198.435,60.681,13.286
2017-11-14T02:46:13,42.805,6.029,4330,1995,198.444,60.684,13.286
2017-11-14T02:49:13,42.805,6.029,4330,1995,198.343,60.653,13.286
2017-11-14T02:52:13,42.805,6.029,4330,1995,198.331,60.649,13.286
2017-11-14T02:55:13,42.805,6.029,4330,1995,198.289,60.636,13.286
2017-11-14T02:58:13,42.805,6.029,4330,1995,198.269,60.630,13.286
2017-11-14T03:01:13,42.805,6.029,4330,1995,198.257,60.627,13.286
2017-11-14T03:04:13,42.805,6.029,4330,1995,198.259,60.627,13.286
2017-11-14T03:07:13,42.805,6.029,4330,1995,198.189,60.606,13.286
2017-11-14T03:10:13,42.805,6.029,4330,1995,198.165,60.599,13.286
2017-11-14T03:13:13,42.805,6.029,4330,1995,198.119,60.585,13.286
2017-11-14T03:16:13,42.805,6.029,4330,1995,198.104,60.580,13.286
2017-11-14T03:19:13,42.805,6.029,4330,1995,198.128,60.588,13.286
2017-11-14T03:22:13,42.805,6.029,4330,1995,198.084,60.574,13.286
2017-11-14T03:25:13,42.805,6.029,4330,1995,198.041,60.561,13.286
2017-11-14T03:28:13,42.805,6.029,4330,1995,197.988,60.545,13.286
2017-11-14T03:31:13,42.805,6.029,4330,1995,198.022,60.555,13.286
2017-11-14T03:34:13,42.805,6.029,4330,1995,198.004,60.549,13.286
2017-11-14T03:37:13,42.805,6.029,4330,1995,197.978,60.542,13.286
2017-11-14T03:40:13,42.805,6.029,4330,1995,197.961,60.536,13.286
2017-11-14T03:43:13,42.805,6.029,4330,1995,197.890,60.514,13.286
2017-11-14T03:46:13,42.805,6.029,4330,1995,197.946,60.532,13.286
2017-11-14T03:49:13,42.805,6.029,4330,1995,197.922,60.524,13.286
2017-11-14T03:52:13,42.805,6.029,4330,1995,197.883,60.513,13.286
2017-11-14T03:55:13,42.805,6.029,4330,1995,197.792,60.485,13.286
2017-11-14T03:58:13,42.805,6.029,4330,1995,197.803,60.488,13.286
2017-11-14T04:01:13,42.805,6.029,4330,1995,197.785,60.482,13.286
2017-11-14T04:04:13,42.805,6.029,4330,1995,197.837,60.499,13.286
2017-11-14T04:07:13,42.805,6.029,4330,1995,197.809,60.490,13.286
2017-11-14T04:10:13,42.805,6.029,4330,1995,197.887,60.514,13.286
2017-11-14T04:13:13,42.805,6.029,4330,1995,197.884,60.513,13.286
2017-11-14T04:16:13,42.805,6.029,4330,1995,197.824,60.495,13.286
2017-11-14T04:19:13,42.805,6.029,4330,1995,197.768,60.477,13.286
2017-11-14T04:22:13,42.805,6.029,4330,1995,197.759,60.475,13.286
2017-11-14T04:25:13,42.805,6.029,4330,1995,197.780,60.481,13.286
2017-11-14T04:28:13,42.805,6.029,4330,1995,197.780,60.481,13.286
2017-11-14T04:31:13,42.805,6.029,4330,1995,197.746,60.471,13.286
2017-11-14T04:34:13,42.805,6.029,4330,1995,197.758,60.475,13.286
2017-11-14T04:37:13,42.805,6.029,4330,1995,197.830,60.497,13.286
2017-11-14T04:40:13,42.805,6.029,4330,1995,197.749,60.472,13.286
2017-11-14T04:43:13,42.805,6.029,4330,1995,197.781,60.482,13.286
2017-11-14T04:46:13,42.805,6.029,4330,1995,197.726,60.465,13.286
2017-11-14T04:49:13,42.805,6.029,4330,1995,197.712,60.461,13.286
2017-11-14T04:52:13,42.805,6.029,4330,1995,197.679,60.451,13.286
2017-11-14T04:55:13,42.805,6.029,4330,1995,197.714,60.461,13.286
2017-11-14T04:58:13,42.805,6.029,4330,1995,197.738,60.469,13.286
2017-11-14T05:01:13,42.805,6.029,4330,1995,197.723,60.464,13.286
2017-11-14T05:04:13,42.805,6.029,4330,1995,197.727,60.465,13.286
2017-11-14T05:07:13,42.805,6.029,4330,1995,197.662,60.446,13.286
2017-11-14T05:10:13,42.805,6.029,4330,1995,197.642,60.441,13.287
2017-11-14T05:13:13,42.805,6.029,4330,1995,197.598,60.426,13.286
2017-11-14T05:16:13,42.805,6.029,4330,1995,197.659,60.445,13.287
2017-11-14T05:19:13,42.805,6.029,4330,1995,197.600,60.427,13.287
2017-11-14T05:22:13,42.805,6.029,4330,1995,197.615,60.432,13.287
2017-11-14T05:25:13,42.805,6.029,4330,1995,197.553,60.413,13.287
2017-11-14T05:28:13,42.805,6.029,4330,1995,197.523,60.404,13.287
2017-11-14T05:31:13,42.805,6.029,4330,1995,197.496,60.395,13.287
2017-11-14T05:34:13,42.805,6.029,4330,1995,197.524,60.404,13.287
2017-11-14T05:37:13,42.805,6.029,4330,1995,197.499,60.397,13.287
2017-11-14T05:40:13,42.805,6.029,4330,1995,197.481,60.391,13.287
2017-11-14T05:43:13,42.805,6.029,4330,1995,197.431,60.376,13.287
2017-11-14T05:46:13,42.805,6.029,4330,1995,197.466,60.387,13.287
2017-11-14T05:49:13,42.805,6.029,4330,1995,197.396,60.365,13.287
2017-11-14T05:52:13,42.805,6.029,4330,1995,197.400,60.366,13.287
2017-11-14T05:55:13,42.805,6.029,4330,1995,197.430,60.376,13.287
2017-11-14T05:58:13,42.805,6.029,4330,1995,197.438,60.378,13.287
2017-11-14T06:01:13,42.805,6.029,4330,1995,197.487,60.393,13.287
2017-11-14T06:04:13,42.805,6.029,4330,1995,197.467,60.387,13.287
2017-11-14T06:07:13,42.805,6.029,4330,1995,197.398,60.367,13.288
2017-11-14T06:10:13,42.805,6.029,4330,1995,197.424,60.373,13.287
2017-11-14T06:13:13,42.805,6.029,4330,1995,197.374,60.358,13.287
2017-11-14T06:16:13,42.805,6.029,4330,1995,197.417,60.371,13.287
2017-11-14T06:19:13,42.805,6.029,4330,1995,197.330,60.345,13.288
2017-11-14T06:22:13,42.805,6.029,4330,1995,197.291,60.333,13.287
2017-11-14T06:25:13,42.805,6.029,4330,1995,197.201,60.305,13.286
2017-11-14T06:28:13,42.805,6.029,4330,1995,197.183,60.299,13.286
2017-11-14T06:31:13,42.805,6.029,4330,1995,197.175,60.296,13.286
2017-11-14T06:34:13,42.805,6.029,4330,1995,197.136,60.284,13.286
2017-11-14T06:37:13,42.805,6.029,4330,1995,197.123,60.281,13.286
2017-11-14T06:40:13,42.805,6.029,4330,1995,197.077,60.267,13.286
2017-11-14T06:43:13,42.805,6.029,4330,1995,197.042,60.256,13.287
2017-11-14T06:46:13,42.805,6.029,4330,1995,196.976,60.236,13.286
2017-11-14T06:49:13,42.805,6.029,4330,1995,196.933,60.222,13.286
2017-11-14T06:52:13,42.805,6.029,4330,1995,196.935,60.223,13.286
2017-11-14T06:55:13,42.805,6.029,4330,1995,196.874,60.204,13.286
2017-11-14T06:58:13,42.805,6.029,4330,1995,196.840,60.194,13.286
2017-11-14T07:01:13,42.805,6.029,4330,1995,196.922,60.219,13.286
2017-11-14T07:04:13,42.805,6.029,4330,1995,196.992,60.240,13.286
2017-11-14T07:07:13,42.805,6.029,4330,1995,197.007,60.245,13.286
2017-11-14T07:10:13,42.805,6.029,4330,1995,196.878,60.206,13.287
2017-11-14T07:13:13,42.805,6.029,4330,1995,196.949,60.227,13.286
2017-11-14T07:16:13,42.805,6.029,4330,1995,196.928,60.221,13.286
2017-11-14T07:19:13,42.805,6.029,4330,1995,196.977,60.236,13.286
2017-11-14T07:22:13,42.805,6.029,4330,1995,196.994,60.241,13.286
2017-11-14T07:25:13,42.805,6.029,4330,1995,196.943,60.225,13.286
2017-11-14T07:28:13,42.805,6.029,4330,1995,196.930,60.221,13.286
2017-11-14T07:31:13,42.805,6.029,4330,1995,196.858,60.199,13.286
2017-11-14T07:34:13,42.805,6.029,4330,1995,196.905,60.214,13.286
2017-11-14T07:37:13,42.805,6.029,4330,1995,196.770,60.172,13.286
2017-11-14T07:40:13,42.805,6.029,4330,1995,196.756,60.168,13.286
2017-11-14T07:43:13,42.805,6.029,4330,1995,196.748,60.166,13.286
2017-11-14T07:46:13,42.805,6.029,4330,1995,196.801,60.182,13.286
2017-11-14T07:49:13,42.805,6.029,4330,1995,196.807,60.184,13.287
2017-11-14T07:52:13,42.805,6.029,4330,1995,196.793,60.180,13.286
2017-11-14T07:55:13,42.805,6.029,4330,1995,196.786,60.178,13.287
2017-11-14T07:58:13,42.805,6.029,4330,1995,196.777,60.174,13.286
2017-11-14T08:01:13,42.805,6.029,4330,1995,196.778,60.175,13.286
2017-11-14T08:04:13,42.805,6.029,4330,1995,196.995,60.241,13.286
2017-11-14T08:07:13,42.805,6.029,4330,1995,197.124,60.281,13.286
2017-11-14T08:10:13,42.805,6.029,4330,1995,197.162,60.293,13.286
2017-11-14T08:13:13,42.805,6.029,4330,1995,197.288,60.331,13.286
2017-11-14T08:16:13,42.805,6.029,4330,1995,197.248,60.318,13.286
2017-11-14T08:19:13,42.805,6.029,4330,1995,197.323,60.341,13.286
2017-11-14T08:22:13,42.805,6.029,4330,1995,197.350,60.349,13.286
2017-11-14T08:25:13,42.805,6.029,4330,1995,197.441,60.377,13.286
2017-11-14T08:28:13,42.805,6.029,4330,1995,197.416,60.369,13.286
2017-11-14T08:31:13,42.805,6.029,4330,1995,197.382,60.359,13.286
2017-11-14T08:34:13,42.805,6.029,4330,1995,197.352,60.350,13.286
2017-11-14T08:37:13,42.805,6.029,4330,1995,197.385,60.360,13.286
2017-11-14T08:40:13,42.805,6.029,4330,1995,197.483,60.390,13.286
2017-11-14T08:43:13,42.805,6.029,4330,1995,197.317,60.339,13.286
2017-11-14T08:46:13,42.805,6.029,4330,1995,197.465,60.384,13.286
2017-11-14T08:49:13,42.805,6.029,4330,1995,197.558,60.413,13.286
2017-11-14T08:52:13,42.805,6.029,4330,1995,197.627,60.434,13.286
2017-11-14T08:55:13,42.805,6.029,4330,1995,197.571,60.417,13.286
2017-11-14T08:58:13,42.805,6.029,4330,1995,197.589,60.422,13.286
2017-11-14T09:01:13,42.805,6.029,4330,1995,197.674,60.448,13.286
2017-11-14T09:04:13,42.805,6.029,4330,1995,197.739,60.468,13.285
2017-11-14T09:07:13,42.805,6.029,4330,1995,197.791,60.485,13.286
2017-11-14T09:10:13,42.805,6.029,4330,1995,197.960,60.536,13.286
2017-11-14T09:13:13,42.805,6.029,4330,1995,197.945,60.531,13.286
2017-11-14T09:16:13,42.805,6.029,4330,1995,198.106,60.580,13.286
2017-11-14T09:19:13,42.805,6.029,4330,1995,198.066,60.568,13.286
2017-11-14T09:22:13,42.805,6.029,4330,1995,198.040,60.560,13.286
2017-11-14T09:25:13,42.805,6.029,4330,1995,198.201,60.610,13.286
2017-11-14T09:28:13,42.805,6.029,4330,1995,198.212,60.613,13.286
2017-11-14T09:31:13,42.805,6.029,4330,1995,198.202,60.610,13.286
2017-11-14T09:34:13,42.805,6.029,4330,1995,198.301,60.640,13.286
2017-11-14T09:37:13,42.805,6.029,4330,1995,198.246,60.623,13.286
2017-11-14T09:40:13,42.805,6.029,4330,1995,198.321,60.646,13.286
2017-11-14T09:43:13,42.805,6.029,4330,1995,198.353,60.656,13.286
2017-11-14T09:46:13,42.805,6.029,4330,1995,198.482,60.695,13.286
2017-11-14T09:49:13,42.805,6.029,4330,1995,198.460,60.688,13.286
2017-11-14T09:52:13,42.805,6.029,4330,1995,198.442,60.683,13.286
2017-11-14T09:55:13,42.805,6.029,4330,1995,198.587,60.728,13.286
2017-11-14T09:58:13,42.805,6.029,4330,1995,198.664,60.751,13.286
2017-11-14T10:01:13,42.805,6.029,4330,1995,198.679,60.756,13.286
2017-11-14T10:04:13,42.805,6.029,4330,1995,198.645,60.745,13.286
2017-11-14T10:07:13,42.805,6.029,4330,1995,198.555,60.718,13.286
2017-11-14T10:10:13,42.805,6.029,4330,1995,198.563,60.720,13.286
2017-11-14T10:13:13,42.805,6.029,4330,1995,198.562,60.720,13.286
2017-11-14T10:16:13,42.805,6.029,4330,1995,198.531,60.711,13.286
2017-11-14T10:19:13,42.805,6.029,4330,1995,198.557,60.719,13.286
2017-11-14T10:22:13,42.805,6.029,4330,1995,198.508,60.704,13.286
2017-11-14T10:25:13,42.805,6.029,4330,1995,198.484,60.696,13.286
2017-11-14T10:28:13,42.805,6.029,4330,1995,198.530,60.710,13.286
2017-11-14T10:31:13,42.805,6.029,4330,1995,198.563,60.720,13.286
2017-11-14T10:34:13,42.805,6.029,4330,1995,198.513,60.705,13.286
2017-11-14T10:37:13,42.805,6.029,4330,1995,198.498,60.700,13.286
2017-11-14T10:40:13,42.805,6.029,4330,1995,198.467,60.691,13.286
2017-11-14T10:43:13,42.805,6.029,4330,1995,198.538,60.713,13.286
2017-11-14T10:46:13,42.805,6.029,4330,1995,198.527,60.709,13.286
2017-11-14T10:49:13,42.805,6.029,4330,1995,198.564,60.720,13.286
2017-11-14T10:52:13,42.805,6.029,4330,1995,198.556,60.718,13.286
2017-11-14T10:55:13,42.805,6.029,4330,1995,198.521,60.707,13.286
2017-11-14T10:58:13,42.805,6.029,4330,1995,198.498,60.700,13.286
2017-11-14T11:01:13,42.805,6.029,4330,1995,198.519,60.707,13.286
2017-11-14T11:04:13,42.805,6.029,4330,1995,198.475,60.693,13.286
2017-11-14T11:07:13,42.805,6.029,4330,1995,198.495,60.700,13.286
2017-11-14T11:10:13,42.805,6.029,4330,1995,198.559,60.719,13.286
2017-11-14T11:13:13,42.805,6.029,4330,1995,198.587,60.728,13.286
2017-11-14T11:16:13,42.805,6.029,4330,1995,198.515,60.705,13.286
2017-11-14T11:19:13,42.805,6.029,4330,1995,198.561,60.719,13.286
2017-11-14T11:22:13,42.805,6.029,4330,1995,198.548,60.716,13.286
2017-11-14T11:25:13,42.805,6.029,4330,1995,198.586,60.727,13.286
2017-11-14T11:28:13,42.805,6.029,4330,1995,198.516,60.706,13.286
2017-11-14T11:31:12,42.805,6.029,4330,1995,198.520,60.707,13.286
2017-11-14T11:34:12,42.805,6.029,4330,1995,198.468,60.691,13.286
2017-11-14T11:37:12,42.805,6.029,4330,1995,198.403,60.672,13.286
2017-11-14T11:40:12,42.805,6.029,4330,1995,198.394,60.669,13.286
2017-11-14T11:43:12,42.805,6.029,4330,1995,198.305,60.642,13.286
2017-11-14T11:46:12,42.805,6.029,4330,1995,198.228,60.618,13.286
2017-11-14T11:49:12,42.805,6.029,4330,1995,198.303,60.641,13.286
2017-11-14T11:52:12,42.805,6.029,4330,1995,198.348,60.655,13.286
2017-11-14T11:55:12,42.805,6.029,4330,1995,198.348,60.654,13.286
2017-11-14T11:58:12,42.805,6.029,4330,1995,198.394,60.668,13.286
2017-11-14T12:01:12,42.805,6.029,4330,1995,198.388,60.667,13.286
2017-11-14T12:04:12,42.805,6.029,4330,1995,198.492,60.698,13.286
2017-11-14T12:07:12,42.805,6.029,4330,1995,198.452,60.686,13.286
2017-11-14T12:10:12,42.805,6.029,4330,1995,198.367,60.660,13.286
2017-11-14T12:13:12,42.805,6.029,4330,1995,198.301,60.640,13.286
2017-11-14T12:16:12,42.805,6.029,4330,1995,198.286,60.635,13.285
2017-11-14T12:19:12,42.805,6.029,4330,1995,198.168,60.599,13.286
2017-11-14T12:22:12,42.805,6.029,4330,1995,198.232,60.619,13.286
2017-11-14T12:25:12,42.805,6.029,4330,1995,198.149,60.593,13.286
2017-11-14T12:28:12,42.805,6.029,4330,1995,198.135,60.589,13.286
2017-11-14T12:31:12,42.805,6.029,4330,1995,198.066,60.568,13.285
2017-11-14T12:34:12,42.805,6.029,4330,1995,198.095,60.577,13.286
2017-11-14T12:37:12,42.805,6.029,4330,1995,198.048,60.563,13.286
2017-11-14T12:40:12,42.805,6.029,4330,1995,198.052,60.564,13.286
2017-11-14T12:43:12,42.805,6.029,4330,1995,197.964,60.537,13.286
2017-11-14T12:46:12,42.805,6.029,4330,1995,197.983,60.543,13.286
2017-11-14T12:49:12,42.805,6.029,4330,1995,197.956,60.535,13.286
2017-11-14T12:52:12,42.805,6.029,4330,1995,197.942,60.530,13.286
2017-11-14T12:55:12,42.805,6.029,4330,1995,197.997,60.547,13.285
2017-11-14T12:58:12,42.805,6.029,4330,1995,198.013,60.552,13.285
2017-11-14T13:01:12,42.805,6.029,4330,1995,198.157,60.596,13.285
2017-11-14T13:04:12,42.805,6.029,4330,1995,198.179,60.603,13.286
2017-11-14T13:07:12,42.805,6.029,4330,1995,198.209,60.612,13.286
2017-11-14T13:10:12,42.805,6.029,4330,1995,198.174,60.601,13.286
2017-11-14T13:13:12,42.805,6.029,4330,1995,198.256,60.626,13.285
2017-11-14T13:16:12,42.805,6.029,4330,1995,198.263,60.628,13.285
2017-11-14T13:19:12,42.805,6.029,4330,1995,198.321,60.646,13.285
2017-11-14T13:22:12,42.805,6.029,4330,1995,198.298,60.639,13.285
2017-11-14T13:25:12,42.805,6.029,4330,1995,198.322,60.646,13.285
2017-11-14T13:28:12,42.805,6.029,4330,1995,198.324,60.646,13.285
2017-11-14T13:31:12,42.805,6.029,4330,1995,198.358,60.657,13.285
2017-11-14T13:34:12,42.805,6.029,4330,1995,198.412,60.674,13.285
2017-11-14T13:37:12,42.805,6.029,4330,1995,198.419,60.676,13.286
2017-11-14T13:40:12,42.805,6.029,4330,1995,198.513,60.704,13.285
2017-11-14T13:43:12,42.805,6.029,4330,1995,198.517,60.705,13.285
2017-11-14T13:46:12,42.805,6.029,4330,1995,198.603,60.732,13.285
2017-11-14T13:49:12,42.805,6.029,4330,1995,198.585,60.726,13.285
2017-11-14T13:52:12,42.805,6.029,4330,1995,198.712,60.765,13.285
2017-11-14T13:55:12,42.805,6.029,4330,1995,198.744,60.775,13.285
2017-11-14T13:58:12,42.805,6.029,4330,1995,198.775,60.784,13.285
2017-11-14T14:01:12,42.805,6.029,4330,1995,198.861,60.811,13.285
2017-11-14T14:04:12,42.805,6.029,4330,1995,198.800,60.792,13.285
2017-11-14T14:07:12,42.805,6.029,4330,1995,198.891,60.820,13.285
2017-11-14T14:10:12,42.805,6.029,4330,1995,198.915,60.828,13.285
2017-11-14T14:13:12,42.805,6.029,4330,1995,198.931,60.832,13.285
2017-11-14T14:16:12,42.805,6.029,4330,1995,198.902,60.823,13.285
2017-11-14T14:19:12,42.805,6.029,4330,1995,198.867,60.812,13.285
2017-11-14T14:22:12,42.805,6.029,4330,1995,198.973,60.845,13.285
2017-11-14T14:25:12,42.805,6.029,4330,1995,198.896,60.821,13.285
2017-11-14T14:28:12,42.805,6.029,4330,1995,198.941,60.835,13.285
2017-11-14T14:31:12,42.805,6.029,4330,1995,198.942,60.835,13.285
2017-11-14T14:34:12,42.805,6.029,4330,1995,198.928,60.831,13.285
2017-11-14T14:37:12,42.805,6.029,4330,1995,198.871,60.814,13.285
2017-11-14T14:40:12,42.805,6.029,4330,1995,198.873,60.814,13.285
2017-11-14T14:43:12,42.805,6.029,4330,1995,198.842,60.805,13.285
2017-11-14T14:46:12,42.805,6.029,4330,1995,198.793,60.790,13.285
2017-11-14T14:49:12,42.805,6.029,4330,1995,198.821,60.799,13.285
2017-11-14T14:52:12,42.805,6.029,4330,1995,198.765,60.781,13.285
2017-11-14T14:55:12,42.805,6.029,4330,1995,198.740,60.773,13.285
2017-11-14T14:58:12,42.805,6.029,4330,1995,198.704,60.763,13.285
2017-11-14T15:01:12,42.805,6.029,4330,1995,198.700,60.762,13.285
2017-11-14T15:04:12,42.805,6.029,4330,1995,198.598,60.730,13.285
2017-11-14T15:07:12,42.805,6.029,4330,1995,198.545,60.714,13.285
2017-11-14T15:10:12,42.805,6.029,4330,1995,198.470,60.691,13.285
2017-11-14T15:13:12,42.805,6.029,4330,1995,198.428,60.678,13.285
2017-11-14T15:16:12,42.805,6.029,4330,1995,198.404,60.671,13.285
2017-11-14T15:19:12,42.805,6.029,4330,1995,198.329,60.648,13.285
2017-11-14T15:22:12,42.805,6.029,4330,1995,198.277,60.632,13.285
2017-11-14T15:25:12,42.805,6.029,4330,1995,198.275,60.631,13.285
2017-11-14T15:28:12,42.805,6.029,4330,1995,198.203,60.610,13.285
2017-11-14T15:31:12,42.805,6.029,4330,1995,198.259,60.627,13.285
2017-11-14T15:34:12,42.805,6.029,4330,1995,198.203,60.610,13.285
2017-11-14T15:37:12,42.805,6.029,4330,1995,198.259,60.627,13.285
2017-11-14T15:40:12,42.805,6.029,4330,1995,198.375,60.662,13.285
2017-11-14T15:43:12,42.805,6.029,4330,1995,198.369,60.660,13.285
2017-11-14T15:46:12,42.805,6.029,4330,1995,198.424,60.677,13.285
2017-11-14T15:49:12,42.805,6.029,4330,1995,198.540,60.712,13.285
2017-11-14T15:52:12,42.805,6.029,4330,1995,198.543,60.713,13.285
2017-11-14T15:55:12,42.805,6.029,4330,1995,198.638,60.743,13.285
2017-11-14T15:58:12,42.805,6.029,4330,1995,198.617,60.736,13.285
2017-11-14T16:01:12,42.805,6.029,4330,1995,198.702,60.762,13.285
2017-11-14T16:04:12,42.805,6.029,4330,1995,198.654,60.747,13.285
2017-11-14T16:07:12,42.805,6.029,4330,1995,198.682,60.756,13.285
2017-11-14T16:10:12,42.805,6.029,4330,1995,198.702,60.762,13.285
2017-11-14T16:13:12,42.805,6.029,4330,1995,198.755,60.779,13.285
2017-11-14T16:16:12,42.805,6.029,4330,1995,198.769,60.783,13.285
2017-11-14T16:19:12,42.805,6.029,4330,1995,198.736,60.773,13.285
2017-11-14T16:22:12,42.805,6.029,4330,1995,198.747,60.776,13.285
2017-11-14T16:25:12,42.805,6.029,4330,1995,198.820,60.798,13.285
2017-11-14T16:28:12,42.805,6.029,4330,1995,198.796,60.791,13.285
2017-11-14T16:31:12,42.805,6.029,4330,1995,198.759,60.780,13.285
2017-11-14T16:34:12,42.805,6.029,4330,1995,198.787,60.788,13.285
2017-11-14T16:37:12,42.805,6.029,4330,1995,198.711,60.765,13.285
2017-11-14T16:40:12,42.805,6.029,4330,1995,198.715,60.767,13.286
2017-11-14T16:43:12,42.805,6.029,4330,1995,198.649,60.746,13.286
2017-11-14T16:46:12,42.805,6.029,4330,1995,198.684,60.757,13.285
2017-11-14T16:49:12,42.805,6.029,4330,1995,198.720,60.768,13.285
2017-11-14T16:52:12,42.805,6.029,4330,1995,198.640,60.743,13.285
2017-11-14T16:55:12,42.805,6.029,4330,1995,198.687,60.758,13.285
2017-11-14T16:58:12,42.805,6.029,4330,1995,198.653,60.747,13.285
2017-11-14T17:01:12,42.805,6.029,4330,1995,198.668,60.752,13.285
2017-11-14T17:04:12,42.805,6.029,4330,1995,198.680,60.755,13.285
2017-11-14T17:07:12,42.805,6.029,4330,1995,198.724,60.769,13.286
2017-11-14T17:10:12,42.805,6.029,4330,1995,198.732,60.772,13.285
2017-11-14T17:13:12,42.805,6.029,4330,1995,198.720,60.768,13.286
2017-11-14T17:16:12,42.805,6.029,4330,1995,198.666,60.752,13.286
2017-11-14T17:19:12,42.805,6.029,4330,1995,198.690,60.759,13.286
2017-11-14T17:22:12,42.805,6.029,4330,1995,198.669,60.753,13.286
2017-11-14T17:25:12,42.805,6.029,4330,1995,198.664,60.751,13.286
2017-11-14T17:28:12,42.805,6.029,4330,1995,198.669,60.752,13.286
2017-11-14T17:31:12,42.805,6.029,4330,1995,198.636,60.743,13.286
2017-11-14T17:34:12,42.805,6.029,4330,1995,198.665,60.751,13.286
2017-11-14T17:37:12,42.805,6.029,4330,1995,198.658,60.749,13.286
2017-11-14T17:40:12,42.805,6.029,4330,1995,198.683,60.756,13.285
2017-11-14T17:43:12,42.805,6.029,4330,1995,198.696,60.761,13.286
2017-11-14T17:46:12,42.805,6.029,4330,1995,198.723,60.769,13.285
2017-11-14T17:49:12,42.805,6.029,4330,1995,198.701,60.762,13.286
2017-11-14T17:52:12,42.805,6.029,4330,1995,198.695,60.760,13.285
2017-11-14T17:55:12,42.805,6.029,4330,1995,198.676,60.754,13.285
2017-11-14T17:58:12,42.805,6.029,4330,1995,198.695,60.760,13.285
2017-11-14T18:01:12,42.805,6.029,4330,1995,198.700,60.762,13.285
2017-11-14T18:04:12,42.805,6.029,4330,1995,198.714,60.766,13.286
2017-11-14T18:07:12,42.805,6.029,4330,1995,198.717,60.767,13.285